TimeCDT,TemperatureF,Dew PointF,Humidity,Sea Level PressureIn,VisibilityMPH,Wind Direction,Wind SpeedMPH,Gust SpeedMPH,PrecipitationIn,Events,Conditions,WindDirDegrees,DateUTC
12:20 AM,66.2,66.2,100,29.86,3.0,SSE,6.9,-,0.05,Rain-Thunderstorm,Rain,150,2013-10-06 05:20:00
12:53 AM,68.0,68.0,100,29.83,6.0,SSE,11.5,-,0.11,Rain,Light Rain,150,2013-10-06 05:53:00
1:46 AM,68.0,68.0,100,29.84,7.0,WSW,5.8,-,0.09,Rain,Light Rain,240,2013-10-06 06:46:00
1:53 AM,68.0,68.0,100,29.83,3.0,SSW,5.8,-,0.10,Rain,Rain,210,2013-10-06 06:53:00
2:17 AM,68.0,66.2,94,29.84,8.0,South,9.2,-,0.04,Rain,Light Rain,170,2013-10-06 07:17:00
2:53 AM,66.9,66.0,97,29.82,3.0,South,10.4,-,0.09,Rain,Heavy Rain,170,2013-10-06 07:53:00
3:03 AM,66.2,66.2,100,29.82,2.5,South,9.2,-,0.02,Rain,Rain,170,2013-10-06 08:03:00
3:13 AM,66.2,66.2,100,29.82,3.0,South,6.9,-,0.03,Rain,Rain,190,2013-10-06 08:13:00
3:28 AM,66.2,66.2,100,29.84,3.0,WSW,8.1,-,0.06,Rain,Rain,240,2013-10-06 08:28:00
3:39 AM,59.0,57.2,94,29.83,2.5,WNW,17.3,-,0.08,Rain,Heavy Rain,300,2013-10-06 08:39:00
3:43 AM,59.0,57.2,94,29.83,2.5,WNW,13.8,-,0.08,Rain,Heavy Rain,300,2013-10-06 08:43:00
3:45 AM,59.0,57.2,94,29.84,3.0,WNW,17.3,-,0.09,Rain,Rain,290,2013-10-06 08:45:00
3:53 AM,57.9,57.0,97,29.84,4.0,WNW,15.0,-,0.10,Rain,Rain,300,2013-10-06 08:53:00
4:10 AM,57.2,55.4,94,29.84,6.0,NW,13.8,-,0.03,Rain,Light Rain,310,2013-10-06 09:10:00
4:53 AM,57.9,55.0,90,29.86,9.0,WNW,10.4,-,0.09,Rain,Light Rain,290,2013-10-06 09:53:00
5:53 AM,55.9,52.0,87,29.86,10.0,NW,11.5,-,0.07,,Overcast,310,2013-10-06 10:53:00
6:53 AM,54.0,51.1,90,29.86,5.0,WNW,4.6,-,0.06,Rain,Light Rain,300,2013-10-06 11:53:00
7:10 AM,53.6,51.8,94,29.86,1.8,WNW,4.6,-,0.02,Rain,Heavy Rain,290,2013-10-06 12:10:00
7:18 AM,53.6,51.8,94,29.88,4.0,WSW,6.9,-,0.02,Rain,Light Rain,250,2013-10-06 12:18:00
7:26 AM,53.6,51.8,94,29.88,1.8,SW,5.8,-,0.03,Rain,Heavy Rain,230,2013-10-06 12:26:00
7:38 AM,53.6,50.0,88,29.87,2.0,West,5.8,-,0.04,Rain,Light Rain,260,2013-10-06 12:38:00
7:53 AM,53.1,51.1,93,29.88,4.0,SW,3.5,-,0.06,Rain,Light Rain,230,2013-10-06 12:53:00
8:01 AM,53.6,51.8,94,29.87,1.8,Calm,Calm,-,0.01,Rain,Rain,0,2013-10-06 13:01:00
8:06 AM,53.6,51.8,94,29.87,3.0,Calm,Calm,-,0.01,Rain,Light Rain,0,2013-10-06 13:06:00
8:53 AM,54.0,52.0,93,29.86,10.0,SW,3.5,-,0.06,,Overcast,220,2013-10-06 13:53:00
9:40 AM,55.4,53.6,94,29.86,10.0,WSW,5.8,-,0.04,,Overcast,240,2013-10-06 14:40:00
9:53 AM,57.0,54.0,89,29.86,10.0,SW,8.1,-,0.05,,Overcast,230,2013-10-06 14:53:00
10:34 AM,57.2,53.6,88,29.86,10.0,SW,6.9,-,0.02,,Overcast,230,2013-10-06 15:34:00
10:41 AM,57.2,53.6,88,29.85,10.0,SW,8.1,-,0.03,,Overcast,230,2013-10-06 15:41:00
10:53 AM,57.9,53.1,84,29.85,10.0,SSW,9.2,-,0.03,,Mostly Cloudy,210,2013-10-06 15:53:00
11:09 AM,59.0,53.6,82,29.84,10.0,SSW,8.1,-,0.01,,Mostly Cloudy,210,2013-10-06 16:09:00
11:53 AM,62.1,53.1,72,29.83,10.0,SSW,8.1,-,0.01,,Partly Cloudy,210,2013-10-06 16:53:00
12:53 PM,64.9,50.0,58,29.81,10.0,SW,11.5,-,N/A,,Mostly Cloudy,220,2013-10-06 17:53:00
1:53 PM,66.0,46.0,48,29.79,10.0,WSW,13.8,-,N/A,,Partly Cloudy,250,2013-10-06 18:53:00
2:53 PM,68.0,44.1,42,29.78,10.0,WSW,16.1,26.5,0.01,,Clear,240,2013-10-06 19:53:00
3:53 PM,66.9,43.0,42,29.78,10.0,WSW,18.4,-,N/A,,Partly Cloudy,250,2013-10-06 20:53:00
4:53 PM,64.0,42.1,45,29.80,10.0,West,17.3,25.3,N/A,,Partly Cloudy,270,2013-10-06 21:53:00
5:53 PM,60.1,39.9,47,29.83,10.0,West,17.3,26.5,N/A,,Clear,280,2013-10-06 22:53:00
6:53 PM,57.0,39.9,53,29.87,10.0,WNW,16.1,-,N/A,,Scattered Clouds,290,2013-10-06 23:53:00
7:53 PM,55.0,39.9,57,29.89,10.0,WNW,11.5,-,N/A,,Overcast,290,2013-10-07 00:53:00
8:53 PM,54.0,39.0,57,29.89,10.0,West,6.9,-,N/A,,Clear,260,2013-10-07 01:53:00
9:53 PM,51.1,41.0,68,29.91,10.0,SW,5.8,-,N/A,,Clear,230,2013-10-07 02:53:00
10:53 PM,50.0,43.0,77,29.91,10.0,SSW,6.9,-,N/A,,Mostly Cloudy,210,2013-10-07 03:53:00
11:53 PM,48.9,44.1,83,29.89,10.0,South,8.1,-,N/A,,Mostly Cloudy,180,2013-10-07 04:53:00